TimeNZDT,TemperatureF,Dew PointF,Humidity,Sea Level PressureIn,VisibilityMPH,Wind Direction,Wind SpeedMPH,Gust SpeedMPH,PrecipitationIn,Events,Conditions,WindDirDegrees,DateUTC
12:50 AM,-41.8,-9999,N/A,28.46,-9999.0,NE,18.4,-,N/A,Snow,Blowing Snow,40,2013-11-08 11:50:00
1:00 AM,-41,,,,2,NE,18.4,,,Snow,Blowing Snow,40,2013-11-08 12:00:00
3:50 AM,-41.8,-9999,N/A,28.47,1.5,NE,20.7,-,N/A,Snow,Blowing Snow,40,2013-11-08 14:50:00
4:50 AM,-41.8,-9999,N/A,28.46,1.5,NNE,17.3,-,N/A,Snow,Light Snow Grains,20,2013-11-08 15:50:00
5:50 AM,-41.8,-9999,N/A,28.48,1.5,NNE,13.8,-,N/A,Snow,Light Snow Grains,30,2013-11-08 16:50:00
6:50 AM,-38.2,-9999,N/A,28.48,1.0,NNE,13.8,-,N/A,Snow,Light Snow Grains,20,2013-11-08 17:50:00
7:00 AM,-39,,,,1,NNE,13.8,,,Snow,Snow Grains,20,2013-11-08 18:00:00
7:16 AM,-36.4,-9999,N/A,28.48,0.7,NNE,16.1,-,N/A,Snow,Light Snow Grains,20,2013-11-08 18:16:00
7:50 AM,-34.6,-9999,N/A,28.49,0.7,NNE,17.3,-,N/A,Snow,Blowing Snow,20,2013-11-08 18:50:00
8:50 AM,-29.2,-9999,N/A,28.49,0.7,NNE,15.0,-,N/A,Snow,Light Snow Grains,20,2013-11-08 19:50:00
9:50 AM,-32.8,-9999,N/A,28.50,1.0,NNE,15.0,-,N/A,Snow,Blowing Snow,20,2013-11-08 20:50:00
10:05 AM,-32.8,-9999,N/A,28.50,0.7,NNE,17.3,-,N/A,Snow,Blowing Snow,20,2013-11-08 21:05:00
10:17 AM,-31.0,-9999,N/A,28.50,0.5,NNE,18.4,-,N/A,Snow,Blowing Snow,20,2013-11-08 21:17:00
10:50 AM,-29.2,-9999,N/A,28.50,0.5,NNE,20.7,-,N/A,Snow,Blowing Snow,20,2013-11-08 21:50:00
11:50 AM,-29.2,-9999,N/A,28.49,0.5,NNE,23.0,28.8,N/A,Snow,Blowing Snow,20,2013-11-08 22:50:00
12:50 PM,-29.2,-9999,N/A,28.50,0.7,NNE,20.7,-,N/A,Snow,Blowing Snow,20,2013-11-08 23:50:00
1:00 PM,-30,,,,1,NNE,20.7,,,Snow,Blowing Snow,20,2013-11-09 00:00:00
1:40 PM,-31.0,-9999,N/A,28.50,1.0,NNE,17.3,-,N/A,Snow,Blowing Snow,20,2013-11-09 00:40:00
1:50 PM,-32.8,-9999,N/A,28.51,1.0,NNE,17.3,-,N/A,Snow,Blowing Snow,20,2013-11-09 00:50:00
2:41 PM,-34.6,-9999,N/A,28.50,1.5,NNE,15.0,-,N/A,Snow,Ice Crystals,30,2013-11-09 01:41:00
2:50 PM,-34.6,-9999,N/A,28.49,1.5,NNE,17.3,-,N/A,Snow,Ice Crystals,20,2013-11-09 01:50:00
6:50 PM,-36.4,-9999,N/A,28.46,6.2,ENE,12.7,-,N/A,,Partly Cloudy,60,2013-11-09 05:50:00
7:00 PM,-36,,,,7,ENE,12.7,,,,Partly Cloudy,60,2013-11-09 06:00:00